#timestamp,LO_Frequency,Hit,StdDev 
1579539615.1,286046999.9,N
1579539635.9,286047001.0,N
1579539655.7,286047002.3,N
1579539675.5,286047000.1,N
1579539695.4,286046999.7,N
1579539715.2,286047002.4,N
1579539735.0,286047000.1,N
1579539736.0,286047000.1,N
1579539755.8,286047002.2,N
1579539775.6,286047002.1,N
1579539795.5,286047000.1,N
1579539815.3,286047001.4,N
1579539835.1,286047002.5,N
1579539855.9,286047000.6,N
1579539875.7,286047001.6,N
1579539895.6,286047001.6,N
1579539915.4,286047004.4,Y
1579539935.2,286047000.3,P
1579539955.1,286047000.3,N
1579539956.0,286047000.3,N
1579539975.8,286047002.6,Y
1579539995.7,286047000.0,P
1579540015.5,286047000.1,N
1579540035.3,286046998.2,P
1579540055.2,286047000.7,N
1579540075.9,286046999.9,N
1579540095.7,286047004.4,Y
1579540115.6,286047003.8,P
1579540135.4,286047001.8,N
1579540155.3,286047004.2,N
1579540175.1,286047005.2,N
1579540176.0,286047005.2,N
1579540195.8,286047003.1,N
1579540215.7,286047005.6,Y
1579540235.5,286047000.1,P
1579540255.3,286046998.8,N
1579540275.2,286046999.5,N
1579540295.0,286046999.5,N
1579540295.9,286046999.5,N
1579540315.8,286046997.0,N
1579540335.6,286046996.5,N
1579540355.4,286046999.2,N
1579540375.3,286046997.6,N
1579540395.1,286046995.0,N
1579540415.9,286046995.9,N
1579540435.7,286046997.7,N
1579540455.5,286046998.0,N
1579540475.4,286046998.5,N
1579540495.2,286046999.0,N
1579540515.1,286046998.5,N
1579540516.0,286046998.5,N
1579540535.8,286046998.8,N
1579540555.6,286046998.6,N
1579540575.5,286046998.6,N
1579540595.3,286047000.4,N
1579540615.1,286046998.3,N
1579540635.9,286046997.7,N
1579540655.7,286046997.0,N
1579540675.6,286046999.1,N
1579540695.4,286046998.1,N
1579540715.2,286046999.0,N
1579540735.1,286047001.2,N
1579540736.0,286047001.2,N
1579540755.8,286047000.7,N
1579540775.6,286047002.2,N
1579540795.5,286047001.3,N
1579540815.3,286047002.5,N
1579540835.2,286047002.1,N
1579540855.9,286047001.4,N
1579540875.7,286047004.0,N
1579540895.6,286047001.3,N
1579540915.4,286047004.3,N
1579540935.2,286047002.1,N
1579540955.1,286047002.2,N
1579540975.8,286047000.4,N
1579540995.7,286046998.7,N
1579541015.5,286047002.6,N
1579541035.4,286047000.7,N
1579541055.2,286046998.3,N
1579541075.0,286047002.7,N
1579541075.9,286047002.7,N
1579541095.8,286047002.7,N
1579541115.6,286047004.4,N
1579541135.5,286046999.7,N
1579541155.3,286047002.8,N
1579541175.1,286046998.4,N
1579541195.9,286047000.7,N
1579541215.7,286046998.6,N
1579541235.6,286047001.4,N
1579541255.4,286047003.9,N
1579541275.2,286047004.2,N
1579541295.1,286047003.7,N
1579541296.0,286047003.7,N
1579541315.8,286047001.8,N
1579541335.8,286047002.6,N
1579541355.6,286047002.6,N
1579541375.4,286047002.7,N
1579541395.3,286046999.8,N
1579541415.1,286047003.7,N
1579541435.9,286047002.2,N
1579541455.7,286047001.9,N
1579541475.5,286047001.8,N
1579541495.4,286046999.9,N
1579541515.2,286046999.7,N
1579541535.1,286046998.8,N
1579541536.0,286046998.8,N
1579541555.8,286046998.4,N
1579541575.6,286046998.6,N
1579541595.5,286046999.6,N
1579541615.3,286046999.2,N
1579541635.2,286046999.4,N
1579541655.9,286046998.7,N
1579541675.7,286046998.1,N
1579541695.6,286047001.5,N
1579541715.4,286047003.2,N
1579541735.2,286047005.9,N
1579541755.1,286047004.4,N
1579541756.0,286047004.4,N
1579541775.8,286047002.2,N
1579541795.7,286047002.6,N
1579541815.5,286047000.1,N
1579541835.3,286047000.3,N
1579541855.2,286047000.9,N
1579541875.0,286047001.7,N
1579541875.9,286047001.7,N
1579541895.8,286047003.3,N
1579541915.6,286047001.4,N
1579541935.4,286047001.8,N
1579541955.3,286047002.0,N
1579541975.1,286047002.1,N
1579541995.8,286046998.5,N
1579542015.7,286046998.1,N
1579542035.5,286047000.6,N
1579542055.4,286047001.9,N
1579542075.2,286046999.7,N
1579542095.0,286047000.1,N
1579542095.9,286047000.1,N
1579542115.8,286047002.4,N
1579542135.6,286047002.6,N
1579542155.4,286046999.8,N
1579542175.3,286046998.2,N
1579542195.1,286046999.8,N
1579542215.9,286046999.9,N
1579542235.7,286046999.8,N
1579542255.5,286046999.7,N
1579542275.4,286046999.7,N
1579542295.2,286047001.4,N
1579542315.1,286047005.0,Y
1579542316.0,286047005.0,P
1579542335.8,286047002.2,N
1579542355.6,286047002.4,N
1579542375.5,286047002.1,N
1579542395.3,286047002.8,N
1579542415.1,286047001.4,N
1579542435.9,286047001.9,N
1579542455.7,286047001.6,N
1579542475.6,286047002.3,N
1579542495.4,286047000.5,N
1579542515.2,286047000.5,N
1579542535.1,286046999.8,N
1579542536.0,286046999.8,N
1579542555.8,286047000.3,N
1579542575.6,286047000.9,N
1579542595.5,286046998.6,N
1579542615.3,286046998.3,N
1579542635.2,286046998.5,N
1579542655.9,286046998.6,N
1579542675.7,286046998.5,N
1579542695.6,286047000.9,N
1579542715.4,286046996.9,N
1579542735.2,286046995.4,N
1579542755.1,286046997.7,N
1579542756.0,286046997.7,N
1579542775.8,286046999.4,N
1579542795.7,286047001.2,N
1579542815.5,286047000.6,N
1579542835.3,286047000.1,N
1579542855.2,286046998.1,N
1579542875.0,286047002.7,N
1579542875.9,286047002.7,N
1579542895.8,286047002.3,N
1579542915.6,286047000.8,N
1579542935.4,286047004.2,N
1579542955.3,286047001.5,N
1579542975.1,286047001.6,N
1579542995.9,286047002.1,N
1579543015.7,286046999.9,N
1579543035.5,286047000.5,N
1579543055.4,286046999.9,N
1579543075.2,286047001.0,N
1579543095.0,286047003.1,N
1579543095.9,286047003.1,N
1579543115.8,286047002.8,N
1579543135.6,286047002.3,N
1579543155.5,286047002.0,N
1579543175.3,286047000.4,N
1579543195.1,286047000.9,N
